This is the latest recevied weather packets stored in our database for station/object M0TJX-1. If no packets are shown the sender has not sent any weather packets the latest 10 day(s).
| Time | Temp. | Humidity | Pressure | Rain* | Wind** | Luminosity | Snow |
|---|---|---|---|---|---|---|---|
| 1777598003 | 12.22° C | 60% | 1018.4 hPa | 0 mm | - | - | - |
| 1777597103 | 12.22° C | 60% | 1018.4 hPa | 0 mm | - | - | - |
| 1777596203 | 12.22° C | 60% | 1018.6 hPa | 0 mm | - | - | - |
| 1777595303 | 12.22° C | 59% | 1018.8 hPa | 0 mm | - | - | - |
| 1777594403 | 12.22° C | 59% | 1019 hPa | 0 mm | - | - | - |
| 1777593503 | 12.22° C | 58% | 1019.2 hPa | 0 mm | - | - | - |
| 1777592603 | 12.78° C | 57% | 1019.1 hPa | 0 mm | - | - | - |
| 1777591703 | 12.78° C | 57% | 1019.2 hPa | 0 mm | - | - | - |
| 1777590803 | 12.78° C | 57% | 1019.4 hPa | 0 mm | - | - | - |
| 1777589903 | 13.33° C | 56% | 1019.4 hPa | 0 mm | - | - | - |
| 1777589003 | 13.33° C | 56% | 1019.4 hPa | 0 mm | - | - | - |
| 1777588103 | 13.33° C | 55% | 1019.5 hPa | 0 mm | - | - | - |
| 1777587203 | 13.89° C | 55% | 1019.6 hPa | 0 mm | - | - | - |
| 1777586303 | 13.89° C | 55% | 1019.7 hPa | 0 mm | - | - | - |
| 1777585403 | 14.44° C | 55% | 1019.7 hPa | 0 mm | - | - | - |
| 1777584503 | 14.44° C | 55% | 1019.7 hPa | 0 mm | - | - | - |
| 1777583603 | 15° C | 54% | 1019.6 hPa | 0 mm | - | - | - |
| 1777582703 | 15° C | 54% | 1019.6 hPa | 0 mm | - | - | - |
| 1777581803 | 15.56° C | 53% | 1019.4 hPa | 0 mm | - | - | - |
| 1777580903 | 15.56° C | 53% | 1019.2 hPa | 0 mm | - | - | - |
| 1777580003 | 16.11° C | 53% | 1018.9 hPa | 0 mm | - | - | - |
| 1777579103 | 16.67° C | 48% | 1019.1 hPa | 0 mm | - | - | - |
| 1777578203 | 17.78° C | 42% | 1019.2 hPa | 0 mm | - | - | - |
| 1777577303 | 18.33° C | 40% | 1018.9 hPa | 0 mm | - | - | - |
| 1777576403 | 18.89° C | 38% | 1018.9 hPa | 0 mm | - | - | - |
* Rain latest hour (hover to see other rain measurements)
** Current wind speed in m/s (hover to see current wind gust speed)